Weather in Novonikolsk

Russia / Republic of Tatarstan     55°02′55″N   52°20′38″E
temp.,
°C
wind,
m/s
gust,
m/s
humid.,
%
clouds,
%
prec.,
mm/h
press.,
hPa
HPBL,
m
28 february, sun
sun2800:00−8nnw4596100 0.1 999153
03:00−11n4694100 0.3 1001234
06:00−13nne4895100 0.1 1002279
09:00−14n479596 0.1 1004321
12:00−13n5793100 0.1 1005379
15:00−12n5892100 0.1 1007479
18:00−14n3896100 0.1 1010297
21:00−16nnw369798 0.1 1012111
1 march, mon
mon100:00−19nnw239980 0.0 101429
03:00−21nw239983 0.0 101626
06:00−23nw229961 0.0 101820
09:00−20nw249675 0.0 1020194
12:00−16nw339096 0.0 1020312
15:00−15nw359298 0.0 1021389
18:00−20w23100100 0.0 102020
21:00−22sw229990 0.0 102020
2 march, tue
tue200:00−21ssw369756 0.0 1018108
03:00−17ssw4109778 0.0 1015260
06:00−15ssw61493100 0.0 1011345
09:00−12ssw81394100 0.5 1007423
12:00−9ssw81393100 0.8 1004517
15:00−6ssw81492100 1.5 1001529
18:00−4ssw71392100 0.2 999419
21:00−2wsw3898100 1.0 999340
3 march, wed
wed300:00−2wsw499691 0.1 998358
03:00−4w479695 1.1 999267
06:00−9w229894 0.1 99922
09:00−5w249694 0.2 1001249
12:00−3wnw469492 0.1 1002477
15:00−4wnw579495 0.3 1002535
18:00−6wnw51093100 0.3 1003415
21:00−9w379694 0.4 1005187
4 march, thu
thu400:00−8nw51194100 0.3 1006416
03:00−14wnw239885 0.4 100822
06:00−14wsw239894 0.1 100951
09:00−11sw479597 0.1 1009267
12:00−7sw71289100 0.0 1006465
15:00−5sw101791100 0.1 1003688
18:00−3sw101793100 1.7 10001031
21:00−2wsw101793100 2.4 9991022